{"data":{"norad_id":55647,"epoch":"2026-09-20T16:29:38.810400Z","epoch_age_seconds":86896,"freshness":"FRESH","line1":"1 55647U 23021V   26263.68725475  .00000406  00000+0  41843-4 0  9991","line2":"2 55647  69.9999  52.6561 0003065 267.5978  92.4830 14.98330021198008","mean_motion":14.98330021,"eccentricity":0.0003065,"inclination_deg":69.9999,"raan_deg":52.6561,"arg_perigee_deg":267.5978,"mean_anomaly_deg":92.483,"bstar":4.1843e-5,"rev_number":19800,"period_min":96.106997778696,"perigee_km":569.92559190248,"apogee_km":574.18606010482,"semimajor_km":6950.1928260036,"source":"CELESTRAK","updated_at":"2026-09-21T09:00:33.283965Z"}}